GW4343 Weather Reports


Display with metric or nautical units.
time (UTC)temp
F
wind
direction
speed
MPH
gust
MPH
rain 1hr
in
rain 24hr
in
rain mn
in
humidity
%
barometer
mb
20260508085003 39 203 1.0 3.0 0.00 0.14 0.00 60 1019.2
20260508084525 40 203 1.0 2.0 0.00 0.14 0.00 60 1019.2
20260508084006 40 209 0.0 2.0 0.00 0.14 0.00 59 1019.2
20260508083504 41 196 0.0 2.0 0.00 0.14 0.00 57 1019.3
20260508083021 42 163 1.0 5.0 0.00 0.14 0.00 54 1019.2
20260508082504 43 242 2.0 7.0 0.00 0.14 0.00 51 1019.3
20260508082012 44 294 1.0 7.0 0.00 0.14 0.00 47 1019.3
20260508081522 43 259 3.0 9.0 0.00 0.14 0.00 49 1019.2
20260508081006 44 238 3.0 9.0 0.00 0.14 0.00 47 1019.3
20260508080507 43 225 3.0 8.0 0.00 0.14 0.00 48 1019.4
20260508080016 41 275 2.0 8.0 0.00 0.14 0.00 53 1019.4
20260508075505 40 210 0.0 2.0 0.00 0.14 0.00 60 1019.3
20260508075007 40 148 1.0 3.0 0.00 0.14 0.00 57 1019.2
20260508074514 41 213 0.0 5.0 0.00 0.14 0.00 57 1019.4
20260508074009 42 155 0.0 5.0 0.00 0.14 0.00 55 1019.5
20260508073509 42 221 1.0 5.0 0.00 0.14 0.00 55 1019.5
20260508073013 42 231 2.0 5.0 0.00 0.14 0.00 54 1019.6
20260508072509 41 280 2.0 5.0 0.00 0.14 0.00 55 1019.6
20260508072007 41 221 1.0 3.0 0.00 0.14 0.00 57 1019.7
20260508071529 43 251 1.0 8.0 0.00 0.14 0.00 54 1019.6
20260508071008 44 148 1.0 8.0 0.00 0.14 0.00 52 1019.6
20260508070507 44 213 1.0 7.0 0.00 0.14 0.00 51 1019.6
20260508070027 44 293 2.0 6.0 0.00 0.14 0.00 51 1019.6
20260508065507 45 101 1.0 10.0 0.00 0.14 0.00 52 1019.6
20260508065004 46 179 3.0 12.0 0.00 0.14 0.00 46 1019.6
20260508064535 46 271 3.0 12.0 0.00 0.14 0.00 45 1019.6
20260508064003 47 268 3.0 12.0 0.00 0.14 0.00 47 1019.6
20260508063507 47 250 7.0 12.0 0.00 0.14 0.00 45 1019.6
20260508063025 45 323 1.0 8.0 0.00 0.14 0.00 53 1019.6
20260508062508 46 283 3.0 7.0 0.00 0.14 0.00 47 1019.5
20260508062007 46 283 4.0 10.0 0.00 0.14 0.00 48 1019.5
20260508061520 46 229 3.0 10.0 0.00 0.14 0.00 47 1019.5
20260508061010 46 224 3.0 9.0 0.00 0.14 0.00 48 1019.4
20260508060507 46 265 1.0 14.0 0.00 0.14 0.00 49 1019.4
20260508060021 46 323 4.0 14.0 0.00 0.14 0.00 46 1019.4
20260508055508 44 276 6.0 14.0 0.00 0.14 0.14 50 1019.5
20260508055005 43 148 2.0 6.0 0.00 0.14 0.14 57 1019.6
20260508054517 43 211 2.0 6.0 0.00 0.14 0.14 56 1019.5
20260508054008 41 214 0.0 5.0 0.00 0.14 0.14 64 1019.5
20260508053511 41 123 1.0 12.0 0.00 0.14 0.14 66 1019.4
20260508053031 40 299 2.0 12.0 0.00 0.14 0.14 65 1019.5
20260508052508 40 131 0.0 2.0 0.00 0.14 0.14 65 1019.4
20260508052006 41 244 0.0 2.0 0.00 0.14 0.14 63 1019.4
20260508051528 42 172 0.0 2.0 0.00 0.14 0.14 65 1019.4
20260508051007 43 138 1.0 4.0 0.00 0.14 0.14 59 1019.4
20260508050510 43 203 2.0 4.0 0.00 0.14 0.14 57 1019.5
20260508050028 45 193 0.0 5.0 0.00 0.14 0.14 54 1019.6
20260508045504 46 252 0.0 6.0 0.00 0.14 0.14 53 1019.5
20260508045009 47 298 2.0 8.0 0.00 0.14 0.14 46 1019.5
20260508044524 47 269 2.0 10.0 0.00 0.14 0.14 46 1019.4
20260508044006 47 314 4.0 10.0 0.00 0.14 0.14 46 1019.5
20260508043508 47 276 3.0 10.0 0.00 0.14 0.14 47 1019.4
20260508043021 47 278 5.0 12.0 0.00 0.14 0.14 46 1019.4
20260508042507 47 297 6.0 12.0 0.00 0.14 0.14 45 1019.4
20260508042009 47 310 5.0 12.0 0.00 0.14 0.14 45 1019.5
20260508041520 46 230 2.0 12.0 0.00 0.14 0.14 49 1019.3
20260508041007 46 245 3.0 15.0 0.00 0.14 0.14 47 1019.4
20260508040507 47 216 2.0 15.0 0.00 0.14 0.14 47 1019.2
20260508040023 46 240 6.0 15.0 0.00 0.14 0.14 48 1019.2
20260508035508 47 236 3.0 13.0 0.00 0.14 0.14 49 1019.3
20260508035009 47 278 3.0 12.0 0.00 0.14 0.14 48 1019.2
20260508034529 47 284 6.0 15.0 0.00 0.14 0.14 48 1019.3
20260508034012 47 283 8.0 16.0 0.00 0.14 0.14 51 1019.2
20260508033505 43 285 10.0 16.0 0.00 0.14 0.14 63 1019.3
20260508033030 40 262 3.0 15.0 0.00 0.14 0.14 77 1019.1
20260508032509 39 205 1.0 3.0 0.00 0.14 0.14 82 1019.1
20260508032008 39 200 0.0 2.0 0.00 0.14 0.14 82 1019.1
20260508031531 40 200 0.0 3.0 0.00 0.14 0.14 82 1018.9
20260508031007 40 130 0.0 3.0 0.00 0.14 0.14 81 1018.9
20260508030508 41 127 0.0 5.0 0.00 0.14 0.14 79 1018.7
20260508030025 41 148 1.0 5.0 0.00 0.14 0.14 78 1018.6
20260508025506 40 318 1.0 5.0 0.00 0.14 0.14 80 1018.8
20260508025009 40 223 1.0 2.0 0.00 0.14 0.14 82 1018.9
20260508024540 41 144 0.0 4.0 0.00 0.14 0.14 79 1018.6
20260508024008 40 238 0.0 6.0 0.00 0.14 0.14 80 1018.5
20260508023508 39 229 1.0 6.0 0.00 0.14 0.14 85 1018.5
20260508023028 39 256 2.0 6.0 0.00 0.14 0.14 85 1018.7
20260508022509 39 270 0.0 2.0 0.00 0.14 0.14 84 1018.4
20260508022007 39 116 1.0 2.0 0.01 0.14 0.14 84 1018.4
20260508021528 39 136 1.0 2.0 0.01 0.14 0.14 85 1018.4
20260508021010 39 240 0.0 1.0 0.01 0.14 0.14 84 1018.3
20260508020508 39 240 0.0 1.0 0.01 0.14 0.14 83 1018.3
20260508020029 40 240 0.0 1.0 0.01 0.14 0.14 83 1018.2
20260508015509 40 241 0.0 3.0 0.01 0.14 0.14 82 1018.3
20260508015007 41 158 2.0 3.0 0.01 0.14 0.14 80 1018.3
20260508014544 41 212 0.0 2.0 0.01 0.14 0.14 82 1018.3
20260508014011 41 215 1.0 3.0 0.01 0.14 0.14 80 1018.2
20260508013507 42 205 0.0 3.0 0.01 0.14 0.14 78 1018.1
20260508013029 43 143 1.0 5.0 0.01 0.14 0.14 76 1018.2
20260508012509 43 212 1.0 19.0 0.01 0.14 0.14 73 1018.2
20260508012009 43 211 1.0 19.0 0.00 0.13 0.13 73 1018.4
20260508011531 44 262 8.0 19.0 0.00 0.13 0.13 70 1018.5
20260508011007 44 214 6.0 19.0 0.00 0.13 0.13 71 1018.3
20260508010511 45 228 6.0 19.0 0.00 0.13 0.13 67 1018.3
20260508010029 45 192 3.0 16.0 0.00 0.13 0.13 68 1018.2
20260508005510 46 63 3.0 31.0 0.00 0.13 0.13 66 1018.2
20260508005008 49 252 12.0 31.0 0.00 0.13 0.13 58 1018.6
20260508004525 50 262 6.0 11.0 0.00 0.13 0.13 53 1017.7
20260508004013 50 218 2.0 4.0 0.00 0.13 0.13 54 1017.6
20260508003511 50 195 1.0 11.0 0.00 0.13 0.13 53 1017.6
20260508003012 51 235 6.0 12.0 0.00 0.13 0.13 52 1017.7
20260508002504 51 260 7.0 12.0 0.00 0.14 0.13 51 1017.8
20260508002003 51 236 4.0 10.0 0.00 0.14 0.13 52 1017.7
20260508001520 51 227 4.0 9.0 0.00 0.14 0.13 51 1017.7
20260508001003 52 260 4.0 12.0 0.00 0.14 0.13 52 1017.8
20260508000505 52 155 5.0 12.0 0.00 0.14 0.13 52 1017.8
20260508000016 51 255 2.0 6.0 0.00 0.14 0.13 52 1018.0
20260507235507 51 307 2.0 11.0 0.00 0.14 0.13 53 1018.0
20260507235007 51 283 3.0 11.0 0.00 0.14 0.13 51 1018.2
20260507234514 51 278 1.0 11.0 0.00 0.15 0.13 51 1018.0
20260507234007 51 289 3.0 11.0 0.00 0.15 0.13 50 1018.0
20260507233506 51 231 5.0 9.0 0.00 0.15 0.13 50 1018.0
20260507233009 51 271 6.0 14.0 0.00 0.15 0.13 50 1018.0
20260507232504 51 212 4.0 14.0 0.00 0.16 0.13 49 1018.0
20260507232004 52 275 6.0 15.0 0.00 0.16 0.13 46 1018.0
20260507231509 51 254 8.0 23.0 0.00 0.16 0.13 47 1018.0
20260507231009 51 276 12.0 23.0 0.00 0.16 0.13 48 1018.0
20260507230505 51 249 6.0 21.0 0.00 0.17 0.13 49 1018.1
20260507230008 52 277 10.0 21.0 0.00 0.17 0.13 46 1018.1
20260507225512 53 262 9.0 17.0 0.00 0.17 0.13 45 1018.0
20260507225003 53 282 5.0 17.0 0.00 0.18 0.13 45 1017.7
20260507224507 53 307 7.0 17.0 0.00 0.18 0.13 45 1017.8
20260507224006 53 226 6.0 16.0 0.00 0.18 0.13 45 1017.7
20260507223503 54 250 6.0 16.0 0.00 0.18 0.13 45 1017.7
20260507223022 55 248 5.0 10.0 0.00 0.19 0.13 43 1017.8
20260507222506 55 232 5.0 11.0 0.00 0.19 0.13 44 1017.7
20260507222007 55 259 7.0 16.0 0.00 0.20 0.13 43 1017.7
20260507221518 54 219 7.0 19.0 0.00 0.20 0.13 45 1017.8
20260507221007 54 264 9.0 19.0 0.00 0.21 0.13 48 1017.9
20260507220511 54 222 6.0 15.0 0.00 0.21 0.13 45 1018.0
20260507220018 54 225 8.0 20.0 0.00 0.22 0.13 46 1017.9
20260507215504 53 268 11.0 20.0 0.00 0.22 0.13 46 1018.2
20260507215008 52 249 5.0 15.0 0.00 0.23 0.13 49 1018.1
20260507214515 52 270 5.0 19.0 0.00 0.23 0.13 48 1018.2
20260507214008 53 221 8.0 19.0 0.00 0.24 0.13 48 1018.3
20260507213507 53 251 8.0 15.0 0.00 0.24 0.13 45 1018.4
20260507213012 54 214 8.0 16.0 0.00 0.25 0.13 46 1018.3
20260507212506 53 260 6.0 17.0 0.00 0.25 0.13 48 1018.2
20260507212006 53 294 8.0 17.0 0.00 0.25 0.13 48 1018.5
20260507211508 53 255 9.0 17.0 0.00 0.26 0.13 48 1018.6
20260507211006 53 240 8.0 17.0 0.00 0.26 0.13 47 1018.6
20260507210504 53 239 4.0 11.0 0.00 0.27 0.13 52 1018.7
20260507210030 52 263 4.0 10.0 0.00 0.27 0.13 52 1019.0
20260507205505 51 291 3.0 14.0 0.00 0.28 0.13 52 1019.2
20260507205005 50 276 5.0 14.0 0.00 0.28 0.13 53 1019.4
20260507204524 51 234 3.0 12.0 0.00 0.29 0.13 52 1019.4
20260507204007 51 261 3.0 12.0 0.01 0.29 0.13 52 1019.4
20260507203504 52 252 4.0 13.0 0.01 0.30 0.13 49 1019.4
20260507203024 52 203 5.0 13.0 0.01 0.31 0.13 53 1019.5
20260507202503 51 220 5.0 13.0 0.02 0.31 0.13 51 1019.6
20260507202009 51 238 5.0 17.0 0.02 0.32 0.13 53 1019.7
20260507201520 50 212 8.0 17.0 0.03 0.32 0.13 51 1019.6
20260507201004 51 244 6.0 17.0 0.03 0.33 0.13 55 1019.6
20260507200508 50 244 8.0 16.0 0.04 0.34 0.13 52 1019.7
20260507200018 50 269 5.0 11.0 0.05 0.35 0.13 53 1019.7
20260507195504 50 288 5.0 14.0 0.06 0.35 0.13 51 1019.7
20260507195010 50 287 6.0 16.0 0.06 0.35 0.13 52 1019.8
20260507194512 50 267 5.0 16.0 0.07 0.36 0.13 52 1019.9
20260507194008 51 289 9.0 15.0 0.06 0.35 0.12 49 1019.9
20260507193506 51 283 5.0 14.0 0.07 0.36 0.12 55 1019.9
20260507193012 50 295 5.0 16.0 0.07 0.36 0.12 53 1019.9
20260507192509 50 283 9.0 16.0 0.07 0.36 0.11 54 1020.1
20260507192006 50 281 5.0 12.0 0.07 0.36 0.11 53 1020.2
20260507191526 50 309 5.0 10.0 0.07 0.35 0.10 53 1020.2
20260507191007 49 214 3.0 10.0 0.07 0.35 0.10 56 1020.2
20260507190504 48 292 5.0 10.0 0.07 0.34 0.09 55 1020.5
20260507190028 48 214 2.0 6.0 0.06 0.33 0.08 53 1020.5
20260507185504 47 117 2.0 6.0 0.05 0.33 0.07 57 1020.6
20260507185004 47 255 4.0 6.0 0.06 0.33 0.07 53 1020.7
20260507184524 47 340 3.0 6.0 0.05 0.32 0.06 53 1020.6
20260507184005 46 250 3.0 6.0 0.05 0.32 0.06 54 1020.7
20260507183508 45 281 3.0 7.0 0.05 0.31 0.05 59 1020.8
20260507183023 44 123 4.0 7.0 0.05 0.31 0.05 56 1020.9
20260507182506 44 237 2.0 5.0 0.04 0.30 0.04 55 1021.0
20260507182011 43 10 1.0 6.0 0.04 0.30 0.04 57 1021.2
20260507181520 43 115 2.0 8.0 0.03 0.29 0.03 55 1021.2
20260507181016 43 233 3.0 8.0 0.03 0.29 0.03 53 1021.3
20260507180508 43 198 3.0 8.0 0.02 0.28 0.02 55 1021.4
20260507180016 43 188 2.0 6.0 0.02 0.29 0.02 57 1021.4
20260507175509 42 272 1.0 6.0 0.02 0.29 0.02 58 1021.5
20260507175004 42 132 4.0 6.0 0.01 0.28 0.01 57 1021.5
20260507174514 42 40 1.0 4.0 0.01 0.28 0.01 54 1021.6
20260507174009 42 325 2.0 4.0 0.01 0.28 0.01 53 1021.7
20260507173504 42 114 1.0 4.0 0.00 0.27 0.00 53 1021.8
20260507173030 42 265 0.0 4.0 0.00 0.27 0.00 54 1021.8
20260507172508 41 238 1.0 4.0 0.00 0.27 0.00 54 1021.9
20260507172006 41 270 2.0 4.0 0.00 0.27 0.00 56 1021.9
20260507171528 41 85 1.0 6.0 0.00 0.27 0.00 55 1022.1
20260507171006 40 250 3.0 6.0 0.00 0.27 0.00 54 1022.1
20260507170510 40 222 0.0 7.0 0.00 0.27 0.00 58 1022.0
20260507170026 39 148 0.0 7.0 0.00 0.28 0.00 58 1022.1
20260507165507 39 136 3.0 8.0 0.00 0.28 0.00 58 1022.1
20260507165014 39 167 2.0 8.0 0.00 0.28 0.00 58 1022.2
20260507164525 38 115 3.0 5.0 0.00 0.28 0.00 57 1022.3
20260507164005 38 9 0.0 4.0 0.00 0.28 0.00 61 1022.4
20260507163510 38 72 1.0 4.0 0.00 0.28 0.00 59 1022.4
20260507163025 38 135 1.0 4.0 0.00 0.28 0.00 58 1022.3
20260507162508 38 108 1.0 7.0 0.00 0.28 0.00 58 1022.4
20260507162011 38 149 3.0 7.0 0.00 0.28 0.00 58 1022.4
20260507161520 38 24 2.0 5.0 0.00 0.28 0.00 58 1022.5
20260507161009 37 4 2.0 5.0 0.00 0.28 0.00 60 1022.5
20260507160505 37 279 1.0 5.0 0.00 0.28 0.00 60 1022.4
20260507160017 36 251 1.0 3.0 0.00 0.28 0.00 60 1022.5
20260507155512 36 163 1.0 3.0 0.00 0.28 0.00 61 1022.6
20260507155011 36 108 0.0 4.0 0.00 0.28 0.00 63 1022.6
20260507154526 35 137 2.0 4.0 0.00 0.28 0.00 63 1022.6
20260507154009 35 121 1.0 3.0 0.00 0.28 0.00 63 1022.6
20260507153506 35 212 1.0 3.0 0.00 0.28 0.00 64 1022.6
20260507153011 35 52 0.0 6.0 0.00 0.28 0.00 64 1022.7
20260507152503 34 30 3.0 6.0 0.00 0.28 0.00 64 1022.6
20260507152007 34 39 2.0 8.0 0.00 0.28 0.00 64 1022.7
20260507151508 34 30 2.0 8.0 0.00 0.28 0.00 67 1022.7
20260507151007 34 32 3.0 4.0 0.00 0.28 0.00 69 1022.7
20260507150504 33 319 2.0 4.0 0.00 0.28 0.00 69 1022.8
20260507150010 33 48 2.0 4.0 0.00 0.28 0.00 72 1022.7
20260507145506 33 20 1.0 3.0 0.00 0.28 0.00 72 1022.7
20260507145003 33 31 1.0 3.0 0.00 0.28 0.00 73 1022.7
20260507144525 32 46 1.0 5.0 0.00 0.28 0.00 74 1022.7
20260507144006 32 47 2.0 5.0 0.00 0.28 0.00 73 1022.7
20260507143503 32 40 1.0 3.0 0.00 0.28 0.00 75 1022.8
20260507143026 31 34 1.0 3.0 0.00 0.28 0.00 74 1022.8
20260507142505 31 25 2.0 3.0 0.00 0.28 0.00 75 1022.9
20260507142002 31 23 1.0 2.0 0.00 0.28 0.00 75 1022.9
20260507141517 30 321 0.0 1.0 0.00 0.28 0.00 79 1022.9
20260507141003 29 288 0.0 0.0 0.00 0.28 0.00 82 1022.9
20260507140507 28 287 0.0 0.0 0.00 0.28 0.00 85 1022.9
20260507140025 28 257 0.0 0.0 0.00 0.28 0.00 85 1022.9
20260507135502 28 257 0.0 0.0 0.00 0.28 0.00 86 1022.9
20260507135006 27 257 0.0 0.0 0.00 0.28 0.00 86 1023.0
20260507134514 27 257 0.0 0.0 0.00 0.28 0.00 86 1022.9
20260507134011 27 257 0.0 0.0 0.00 0.28 0.00 86 1022.8
20260507133510 26 257 0.0 0.0 0.00 0.28 0.00 87 1022.8
20260507133010 26 257 0.0 0.0 0.00 0.28 0.00 88 1022.7
20260507132507 25 257 0.0 0.0 0.00 0.28 0.00 88 1022.7
20260507132006 25 257 0.0 0.0 0.00 0.28 0.00 88 1022.6
20260507131507 25 256 0.0 0.0 0.00 0.28 0.00 88 1022.7
20260507131009 24 256 0.0 0.0 0.00 0.28 0.00 88 1022.6
20260507130504 24 256 0.0 1.0 0.00 0.28 0.00 88 1022.5
20260507130024 24 256 0.0 1.0 0.00 0.28 0.00 88 1022.5
20260507125510 24 213 0.0 0.0 0.00 0.28 0.00 89 1022.5
20260507125003 24 213 0.0 1.0 0.00 0.28 0.00 89 1022.5
20260507124525 23 213 0.0 1.0 0.00 0.28 0.00 88 1022.4
20260507124009 23 198 0.0 3.0 0.00 0.28 0.00 89 1022.4
20260507123509 23 198 1.0 3.0 0.00 0.28 0.00 89 1022.3
20260507103024 20 261 0.0 0.0 0.00 0.28 0.00 91 1022.8
20260507102503 21 261 0.0 0.0 0.00 0.28 0.00 91 1022.9
20260507102012 21 261 0.0 1.0 0.00 0.28 0.00 91 1023.0
20260507101534 21 261 0.0 1.0 0.00 0.28 0.00 91 1023.0
20260507101003 21 262 0.0 1.0 0.00 0.28 0.00 90 1023.0
20260507100506 21 262 0.0 3.0 0.00 0.28 0.00 91 1022.9
20260507100025 21 195 1.0 3.0 0.00 0.28 0.00 91 1022.9
20260507095503 21 240 0.0 1.0 0.00 0.28 0.00 91 1023.0
20260507095014 21 220 0.0 1.0 0.00 0.28 0.00 91 1023.0
20260507094512 21 249 0.0 2.0 0.00 0.28 0.00 90 1023.1
20260507094007 21 249 0.0 2.0 0.00 0.28 0.00 90 1023.2
20260507093504 21 249 0.0 2.0 0.00 0.28 0.00 90 1023.2
20260507093008 21 243 1.0 2.0 0.00 0.28 0.00 90 1023.3
20260507092509 21 198 0.0 2.0 0.00 0.28 0.00 90 1023.1
20260507092003 21 245 0.0 2.0 0.00 0.28 0.00 90 1023.0
20260507091546 21 227 1.0 4.0 0.00 0.28 0.00 90 1023.0
20260507091008 21 229 1.0 4.0 0.00 0.28 0.00 90 1023.1
20260507090504 21 255 1.0 3.0 0.00 0.28 0.00 90 1023.1
20260507090023 21 235 1.0 3.0 0.00 0.28 0.00 90 1023.1
20260507085503 21 221 0.0 2.0 0.00 0.28 0.00 90 1023.1